Regional Weather Roundup
Issued by NWS

Home | Current Version | Previous Version | Graphics & Text | Print | Product List | Glossary Off
Versions: 1 2 3 4 5 6 7 8 9 10 11 12 13 14 15 16 17 18 19 20 21 22 23 24 25 26 27 28 29 30 31 32 33 34 35 36 37 38 39 40 41 42 43 44 45 46 47 48 49 50

000
ASUS43 KTOP 040359
RWRKS

WEATHER ROUNDUP FOR KANSAS
NATIONAL WEATHER SERVICE GOODLAND KS
1100 PM CDT MON AUG 03 2015

NOTE:  "FAIR" INDICATES FEW OR NO CLOUDS BELOW 12,000 FEET WITH NO
SIGNIFICANT WEATHER AND/OR OBSTRUCTIONS TO VISIBILITY.

KSZ001>006-013>018-027>032-041>047-040500-
NORTHWEST KANSAS

CITY           SKY/WX    TMP DP  RH WIND       PRES   REMARKS
GOODLAND       MOCLDY    73  56  54 SE7       30.01R
HAYS           MOCLDY    81  64  57 S10       29.94R
HILL CITY      CLOUDY    81  66  60 S9        29.93S
RUSSELL        PTCLDY    79  68  69 S9        29.92R
$$

KSZ061>065-074>080-084>089-040500-
SOUTHWEST KANSAS

CITY           SKY/WX    TMP DP  RH WIND       PRES   REMARKS
DODGE CITY     CLOUDY    75  66  73 SE10      29.97R
ELKHART          N/A     68  59  73 S6          N/A
GARDEN CITY    CLOUDY    76  67  73 SE9       29.97R
GREAT BEND     MOCLDY    79  66  65 SE9       29.94R
LIBERAL        CLOUDY    73  66  78 SE17        N/A
$$

KSZ066>073-081>083-090>101-040500-
SOUTHEAST KANSAS

CITY           SKY/WX    TMP DP  RH WIND       PRES   REMARKS
CHANUTE        PTCLDY    74  68  81 S7        29.95R
COFFEYVILLE      N/A     75  69  81 SE3       29.93S
HUTCHINSON     PTCLDY    80  70  71 SE9       29.94R
MEDICINE LODGE   N/A     79  69  71 S3        29.94R
NEWTON         MOCLDY    79  66  65 S9        29.97S
PARSONS        PTCLDY    71  69  93 CALM      29.95R
WICHITA INTL   PTCLDY    80  69  69 S9        29.94R
WICHITA JABRA  PTCLDY    80  68  66 S9        29.94R
$$

KSZ007>012-019>026-033>040-048>060-102>105-040500-
NORTHEAST KANSAS

CITY           SKY/WX    TMP DP  RH WIND       PRES   REMARKS
CONCORDIA      MOCLDY    77  72  84 E8        29.93R
EMPORIA        MOCLDY    77  68  73 S8        29.93R
LAWRENCE       PTCLDY    77  69  76 E3        29.93R
MANHATTAN      MOCLDY    79  73  82 CALM      29.91R
OLATHE IND     PTCLDY    80  73  79 E9        29.95R
OLATHE EXE     PTCLDY    78  71  79 E6        29.94R
SALINA         CLOUDY    81  70  69 S8        29.91S
TOPEKA BILLARD PTCLDY    78  71  79 E6        29.93R
TOPEKA FORBES  PTCLDY    79  71  76 E7        29.93R
$$


USA.gov is the U.S. government's official web portal to all federal, state and local government web resources and services.